sat.trackr.live / text

‹ back to catalog

STARLINK-4619

NORAD 54191 · 2022-141AL

PAYLOAD ACTIVE UNKNOWN

§ Identity

Operator
Country
US
Launch date
2022-10-28
Launch site
AFWTR
Launch vehicle
Mass (kg)
RCS (m²)

Purposes: comms

External: N2YO · Heavens-Above · Gunter

§ Orbital elements

Epoch: 2026-05-25T01:24:31.076928Z

Period
95.44 min
Inclination
53.2144°
Eccentricity
0.0001383
Mean motion
15.08819553 rev/d
Perigee alt
538.8 km
Apogee alt
540.8 km
Semi-major
6,917.9 km
B*
1.5078e-5
RAAN
11.5224°
Arg perigee
84.6921°
Mean anomaly
275.4229°
Rev number
19,752

§ Raw data

STARLINK-46191 54191U 22141AL  26145.05869302 -.00000048  00000+0  15078-4 0  99982 54191  53.2144  11.5224 0001383  84.6921 275.4229 15.08819553197521

JSON: /api/v1/satellites/54191 · /tle

For live sub-satellite position, see the globe view (requires WebGL).

§ Visibility from observer

Set your observer location to see the next 7 days of passes ≥ 10°. The values pass through the URL so the page stays shareable.

No JS? Fill the form by hand. The geolocation button needs JavaScript.